FW4399 Weather Reports


Display with metric or nautical units.
time (UTC)temp
F
wind
direction
speed
MPH
gust
MPH
rain 1hr
in
rain 24hr
in
rain mn
in
humidity
%
barometer
mb
20260508033034 42 155 3.0 0.0 0.00 0.00 0.00 92 1011.5
20260508031522 42 147 5.0 0.0 0.00 0.00 0.00 92 1011.5
20260508030027 42 148 3.0 0.0 0.00 0.00 0.00 91 1011.4
20260508024532 42 148 3.0 0.0 0.00 0.00 0.00 91 1011.5
20260508023046 42 139 4.0 0.0 0.00 0.00 0.00 91 1011.3
20260508021622 42 139 4.0 0.0 0.00 0.00 0.00 91 1011.3
20260508020033 42 139 4.0 0.0 0.00 0.00 0.00 90 1011.3
20260508014547 43 142 4.0 0.0 0.00 0.00 0.00 91 1011.2
20260508013143 43 138 4.0 0.0 0.00 0.00 0.00 90 1011.1
20260508011511 42 141 4.0 0.0 0.00 0.00 0.00 90 1011.2
20260508010057 43 142 4.0 0.0 0.00 0.00 0.00 89 1011.4
20260508004528 43 136 4.0 0.0 0.00 0.00 0.00 89 1011.4
20260508003028 43 136 3.0 0.0 0.00 0.00 0.00 88 1011.5
20260508001553 44 140 3.0 0.0 0.00 0.00 0.00 87 1011.6
20260508000043 45 137 3.0 0.0 0.00 0.00 0.00 86 1011.6
20260507234628 45 139 5.0 0.0 0.00 0.00 0.00 86 1011.6
20260507233148 46 143 6.0 0.0 0.00 0.00 0.00 85 1011.6
20260507231550 46 155 6.0 0.0 0.00 0.00 0.00 85 1011.6
20260507230145 46 143 7.0 0.0 0.00 0.00 0.00 85 1011.8
20260507224510 46 148 6.0 0.0 0.00 0.00 0.01 84 1012.0
20260507223211 47 143 6.0 0.0 0.00 0.00 0.01 83 1011.9
20260507221632 47 168 6.0 0.0 0.00 0.00 0.01 82 1012.0
20260507220141 48 157 8.0 0.0 0.00 0.00 0.01 81 1011.6
20260507214517 48 148 8.0 0.0 0.00 0.00 0.01 80 1011.6
20260507213046 48 153 6.0 0.0 0.00 0.00 0.01 80 1011.7
20260507211639 48 156 6.0 0.0 0.00 0.00 0.01 79 1011.6
20260507210006 49 148 6.0 0.0 0.00 0.00 0.01 78 1011.5
20260507204650 49 147 6.0 0.0 0.00 0.00 0.01 78 1011.5
20260507203008 49 135 6.0 0.0 0.00 0.00 0.01 79 1011.3
20260507201552 50 139 6.0 0.0 0.00 0.00 0.01 78 1011.5
20260507200054 51 144 7.0 0.0 0.00 0.00 0.01 76 1011.3
20260507194559 51 124 7.0 0.0 0.00 0.00 0.01 75 1011.0
20260507193134 52 131 7.0 0.0 0.00 0.00 0.01 73 1011.0
20260507191638 53 105 7.0 0.0 0.00 0.00 0.01 71 1010.8
20260507190127 54 122 7.0 0.0 0.00 0.00 0.01 69 1010.9
20260507184625 54 133 7.0 0.0 0.00 0.00 0.01 66 1010.8
20260507183139 55 131 9.0 0.0 0.00 0.00 0.01 64 1010.6
20260507181509 56 140 8.0 0.0 0.00 0.00 0.01 62 1010.6
20260507180103 57 141 10.0 0.0 0.00 0.00 0.01 60 1010.7
20260507174556 57 152 8.0 0.0 0.00 0.00 0.01 60 1010.8
20260507173015 57 139 8.0 0.0 0.00 0.00 0.01 61 1010.6
20260507171529 57 124 8.0 0.0 0.00 0.00 0.01 59 1010.8
20260507170051 57 125 8.0 0.0 0.00 0.00 0.01 59 1010.8
20260507164549 58 143 8.0 0.0 0.00 0.00 0.01 59 1010.8
20260507163011 58 159 8.0 0.0 0.00 0.00 0.01 57 1010.9
20260507161553 58 138 9.0 0.0 0.00 0.00 0.01 58 1011.0
20260507160049 58 138 8.0 0.0 0.00 0.00 0.01 60 1011.0
20260507154557 58 155 9.0 0.0 0.00 0.00 0.01 56 1011.0
20260507153128 59 160 7.0 0.0 0.00 0.00 0.01 55 1011.1
20260507151630 59 165 7.0 0.0 0.00 0.00 0.01 53 1011.1
20260507150134 59 146 8.0 0.0 0.00 0.00 0.01 55 1011.1
20260507144529 59 150 6.0 0.0 0.00 0.00 0.01 56 1011.1
20260507143133 61 162 8.0 0.0 0.00 0.00 0.01 48 1011.2
20260507141527 61 152 5.0 0.0 0.00 0.00 0.01 46 1011.2
20260507140126 59 137 8.0 0.0 0.00 0.00 0.01 57 1011.4
20260507134622 58 174 8.0 0.0 0.00 0.00 0.01 56 1011.5
20260507133130 58 147 7.0 0.0 0.00 0.00 0.01 57 1011.5
20260507131528 59 140 6.0 0.0 0.00 0.00 0.01 55 1011.5
20260507130058 60 190 6.0 0.0 0.00 0.00 0.01 53 1011.5
20260507124608 60 106 3.0 0.0 0.00 0.00 0.01 56 1011.5
20260507123020 62 128 5.0 0.0 0.00 0.00 0.01 54 1011.7
20260507121539 60 79 5.0 0.0 0.00 0.00 0.01 56 1011.7
20260507120033 62 158 3.0 0.0 0.00 0.00 0.01 48 1012.0
20260507114522 63 140 5.0 0.0 0.00 0.00 0.01 55 1012.1
20260507113033 63 152 5.0 0.0 0.00 0.00 0.01 56 1012.1
20260507111545 60 199 3.0 0.0 0.00 0.00 0.01 57 1012.1
20260507110027 62 179 4.0 0.0 0.00 0.00 0.01 60 1012.1
20260507104634 62 156 3.0 0.0 0.00 0.00 0.01 58 1012.1
20260507103028 60 246 5.0 0.0 0.00 0.00 0.01 55 1012.3
20260507101607 60 178 4.0 0.0 0.00 0.00 0.01 64 1012.3
20260507100022 57 188 4.0 0.0 0.00 0.00 0.01 66 1012.3
20260507094622 57 195 4.0 0.0 0.00 0.00 0.01 68 1012.2
20260507093132 56 166 3.0 0.0 0.00 0.00 0.01 70 1012.2
20260507091622 57 143 4.0 0.0 0.00 0.00 0.01 70 1012.3
20260507090019 54 177 4.0 0.0 0.00 0.00 0.01 76 1012.3
20260507084541 53 165 3.0 0.0 0.00 0.00 0.01 78 1012.2
20260507083141 53 170 4.0 0.0 0.00 0.00 0.01 73 1012.5
20260507081516 53 153 5.0 0.0 0.00 0.00 0.01 77 1012.5
20260507080051 52 163 5.0 0.0 0.00 0.00 0.01 74 1012.5
20260507074524 53 133 3.0 0.0 0.00 0.00 0.01 81 1012.6
20260507073032 51 165 5.0 0.0 0.00 0.00 0.01 82 1012.6
20260507071539 50 158 5.0 0.0 0.00 0.00 0.01 87 1012.5
20260507070141 49 147 3.0 0.0 0.00 0.00 0.01 91 1012.2
20260507064603 48 98 2.0 0.0 0.00 0.00 0.01 95 1012.0
20260507063135 46 69 1.0 0.0 0.00 0.00 0.01 95 1011.6
20260507061540 43 33 0.0 0.0 0.00 0.00 0.01 95 1011.5
20260507060038 42 34 1.0 0.0 0.00 0.00 0.01 94 1011.5
20260507054646 41 4 1.0 0.0 0.00 0.00 0.01 94 1011.4
20260507053142 41 332 1.0 0.0 0.00 0.00 0.01 94 1011.3
20260507051628 40 331 0.0 0.0 0.00 0.00 0.01 94 1011.2
20260507050026 40 331 0.0 0.0 0.00 0.00 0.01 93 1011.1
20260507044603 40 331 1.0 0.0 0.00 0.00 0.01 93 1011.0
20260507043135 40 13 3.0 0.0 0.00 0.00 0.01 93 1011.0
20260507041526 40 15 2.0 0.0 0.00 0.00 0.01 93 1011.0
20260507040126 40 15 2.0 0.0 0.00 0.00 0.01 93 1011.0
20260507034525 40 15 2.0 0.0 0.00 0.00 0.01 92 1010.8